SIA412 VRMM-VCBI

Flight info

Callsign SIA412
Flight time 1h 7m
Altitude 37000
Route HOKEY1A HOKEY M512 TELIG LALUM1A
Aircraft A339/H-SADE1E2E3GHIJ3J5M1P2RWXY/LB2D1

Departure

Time 2026-04-25 14:21
Airport Velana International Airport (VRMM)

Arrival

Time 2026-04-25 15:29
Airport Bandaranaike International Colombo Airport (VCBI)
Time Latitude Longitude Altitude Speed Heading
2026-04-25 14:00 4.18537 73.52803 17 ft 0 kts 329°
2026-04-25 14:09 4.18531 73.52806 19 ft 2 kts 314°
2026-04-25 14:09 4.18523 73.52816 19 ft 0 kts 285°
2026-04-25 14:12 4.18522 73.52812 19 ft 1 kts 263°
2026-04-25 14:13 4.18518 73.52809 19 ft 1 kts 238°
2026-04-25 14:13 4.18511 73.52807 10 ft 1 kts 196°
2026-04-25 14:13 4.18506 73.52809 6 ft 1 kts 169°
2026-04-25 14:13 4.18488 73.52817 0 ft 2 kts 146°
2026-04-25 14:14 4.18465 73.52846 17 ft 9 kts 128°
2026-04-25 14:14 4.18443 73.52858 18 ft 0 kts 178°
2026-04-25 14:14 4.18442 73.52858 18 ft 0 kts 178°
2026-04-25 14:16 4.18441 73.52858 19 ft 2 kts 178°
2026-04-25 14:16 4.18389 73.52860 19 ft 10 kts 178°
2026-04-25 14:17 4.18308 73.52862 17 ft 13 kts 178°
2026-04-25 14:17 4.18212 73.52864 20 ft 15 kts 179°
2026-04-25 14:17 4.18126 73.52868 20 ft 0 kts 158°
2026-04-25 14:17 4.18123 73.52871 20 ft 1 kts 136°
2026-04-25 14:18 4.18124 73.52886 19 ft 4 kts 88°
2026-04-25 14:18 4.18144 73.52920 19 ft 7 kts 34°
2026-04-25 14:18 4.18183 73.52949 16 ft 8 kts 57°
2026-04-25 14:18 4.18196 73.53007 15 ft 10 kts 81°
2026-04-25 14:19 4.18209 73.53080 14 ft 11 kts 59°
2026-04-25 14:19 4.18253 73.53101 15 ft 0 kts 359°
2026-04-25 14:21 4.18370 73.53101 16 ft 59 kts 360°
2026-04-25 14:21 4.19126 73.53100 22 ft 156 kts 360°
2026-04-25 14:21 4.20297 73.53095 856 ft 173 kts
2026-04-25 14:21 4.21535 73.53092 1928 ft 187 kts
2026-04-25 14:22 4.22880 73.53098 3007 ft 205 kts
2026-04-25 14:22 4.24446 73.53100 3716 ft 244 kts
2026-04-25 14:22 4.26228 73.53099 4687 ft 269 kts
2026-04-25 14:22 4.28214 73.53097 5411 ft 303 kts
2026-04-25 14:23 4.30455 73.53096 5781 ft 342 kts
2026-04-25 14:23 4.32989 73.53094 5865 ft 385 kts
2026-04-25 14:23 4.35766 73.53091 5868 ft 404 kts
2026-04-25 14:23 4.38475 73.53162 5767 ft 372 kts
2026-04-25 14:24 4.40808 73.54004 5856 ft 358 kts 33°
2026-04-25 14:24 4.42530 73.55728 6451 ft 348 kts 58°
2026-04-25 14:24 4.43326 73.57955 7232 ft 337 kts 83°
2026-04-25 14:24 4.43175 73.60250 8043 ft 326 kts 100°
2026-04-25 14:25 4.42796 73.62455 8880 ft 316 kts 98°
2026-04-25 14:25 4.42538 73.64608 9743 ft 306 kts 95°
2026-04-25 14:25 4.42384 73.66717 10326 ft 306 kts 92°
2026-04-25 14:25 4.42348 73.67411 10413 ft 309 kts 92°
2026-04-25 14:26 4.42247 73.71098 10716 ft 328 kts 90°
2026-04-25 14:26 4.42222 73.73424 10901 ft 339 kts 90°
2026-04-25 14:26 4.42241 73.75823 11077 ft 349 kts 86°
2026-04-25 14:26 4.42598 73.78242 11338 ft 354 kts 78°
2026-04-25 14:27 4.43134 73.80657 11688 ft 356 kts 77°
2026-04-25 14:27 4.43694 73.83085 12051 ft 358 kts 77°
2026-04-25 14:27 4.44257 73.85524 12420 ft 360 kts 77°
2026-04-25 14:27 4.44818 73.87973 12778 ft 362 kts 77°
2026-04-25 14:28 4.45375 73.90408 13128 ft 364 kts 77°
2026-04-25 14:28 4.45939 73.92880 13476 ft 366 kts 77°
2026-04-25 14:28 4.46507 73.95372 13811 ft 367 kts 77°
2026-04-25 14:28 4.47077 73.97875 14104 ft 369 kts 77°
2026-04-25 14:29 4.47648 74.00385 14401 ft 371 kts 77°
2026-04-25 14:29 4.48224 74.02914 14701 ft 373 kts 77°
2026-04-25 14:29 4.48800 74.05448 15001 ft 374 kts 77°
2026-04-25 14:29 4.49380 74.07996 15301 ft 376 kts 77°
2026-04-25 14:30 4.49962 74.10555 15605 ft 377 kts 77°
2026-04-25 14:30 4.51124 74.15668 16190 ft 380 kts 77°
2026-04-25 14:30 4.51713 74.18257 16497 ft 382 kts 77°
2026-04-25 14:31 4.52304 74.20856 16791 ft 384 kts 77°
2026-04-25 14:31 4.52897 74.23469 17082 ft 385 kts 77°
2026-04-25 14:31 4.53493 74.26093 17376 ft 387 kts 77°
2026-04-25 14:31 4.54091 74.28726 17658 ft 388 kts 77°
2026-04-25 14:32 4.54766 74.31355 17924 ft 390 kts 73°
2026-04-25 14:32 4.55596 74.33949 18202 ft 392 kts 72°
2026-04-25 14:32 4.56444 74.36551 18438 ft 394 kts 72°
2026-04-25 14:32 4.57272 74.39135 18669 ft 395 kts 73°
2026-04-25 14:33 4.58102 74.41762 18888 ft 397 kts 73°
2026-04-25 14:33 4.58933 74.44410 19119 ft 399 kts 73°
2026-04-25 14:33 4.59761 74.47067 19354 ft 400 kts 73°
2026-04-25 14:33 4.60592 74.49738 19579 ft 402 kts 73°
2026-04-25 14:34 4.61425 74.52418 19809 ft 404 kts 73°
2026-04-25 14:34 4.62259 74.55107 20034 ft 405 kts 73°
2026-04-25 14:34 4.63098 74.57810 20259 ft 407 kts 73°
2026-04-25 14:34 4.63928 74.60489 20473 ft 408 kts 73°
2026-04-25 14:35 4.64772 74.63209 20701 ft 410 kts 73°
2026-04-25 14:35 4.65620 74.65945 20914 ft 412 kts 73°
2026-04-25 14:35 4.66471 74.68693 21131 ft 413 kts 73°
2026-04-25 14:35 4.67325 74.71449 21360 ft 415 kts 73°
2026-04-25 14:36 4.68183 74.74219 21565 ft 416 kts 73°
2026-04-25 14:36 4.69043 74.76996 21780 ft 418 kts 73°
2026-04-25 14:36 4.69906 74.79781 21997 ft 420 kts 73°
2026-04-25 14:36 4.70773 74.82582 22187 ft 421 kts 73°
2026-04-25 14:37 4.71631 74.85353 22404 ft 423 kts 73°
2026-04-25 14:37 4.72504 74.88175 22602 ft 424 kts 73°
2026-04-25 14:37 4.73380 74.91004 22804 ft 426 kts 73°
2026-04-25 14:37 4.74259 74.93845 23008 ft 428 kts 73°
2026-04-25 14:38 4.75141 74.96697 23214 ft 429 kts 73°
2026-04-25 14:38 4.76027 74.99559 23421 ft 430 kts 73°
2026-04-25 14:38 4.76915 75.02430 23583 ft 432 kts 73°
2026-04-25 14:38 4.77806 75.05313 23753 ft 433 kts 73°
2026-04-25 14:39 4.78698 75.08197 23944 ft 434 kts 73°
2026-04-25 14:39 4.79592 75.11088 24163 ft 434 kts 73°
2026-04-25 14:39 4.80473 75.13941 24341 ft 435 kts 74°
2026-04-25 14:39 4.81370 75.16849 24508 ft 437 kts 73°
2026-04-25 14:40 4.82273 75.19761 24680 ft 438 kts 74°
2026-04-25 14:40 4.83179 75.22685 24856 ft 440 kts 74°
2026-04-25 14:40 4.84087 75.25619 25032 ft 441 kts 74°
2026-04-25 14:40 4.84998 75.28561 25205 ft 442 kts 74°
2026-04-25 14:41 4.85603 75.30515 25328 ft 443 kts 74°
2026-04-25 14:41 4.86518 75.33472 25496 ft 445 kts 74°
2026-04-25 14:41 4.87435 75.36438 25672 ft 446 kts 74°
2026-04-25 14:41 4.88355 75.39413 25851 ft 448 kts 74°
2026-04-25 14:42 4.89577 75.43366 26086 ft 449 kts 74°
2026-04-25 14:42 4.89890 75.44378 26159 ft 450 kts 74°
2026-04-25 14:42 4.91119 75.48354 26407 ft 451 kts 74°
2026-04-25 14:42 4.92048 75.51362 26595 ft 453 kts 74°
2026-04-25 14:43 4.92981 75.54384 26768 ft 454 kts 74°
2026-04-25 14:43 4.93918 75.57417 26963 ft 456 kts 74°
2026-04-25 14:43 4.94858 75.60459 27152 ft 457 kts 75°
2026-04-25 14:43 4.95799 75.63507 27340 ft 459 kts 75°
2026-04-25 14:44 4.96742 75.66570 27528 ft 460 kts 75°
2026-04-25 14:44 4.97687 75.69646 27719 ft 462 kts 75°
2026-04-25 14:44 4.98635 75.72726 27923 ft 464 kts 75°
2026-04-25 14:44 4.99588 75.75823 28107 ft 465 kts 75°
2026-04-25 14:45 5.00219 75.77875 28238 ft 466 kts 75°
2026-04-25 14:45 5.01487 75.81999 28508 ft 468 kts 75°
2026-04-25 14:45 5.02446 75.85121 28694 ft 469 kts 75°
2026-04-25 14:45 5.03408 75.88251 28889 ft 471 kts 75°
2026-04-25 14:46 5.04375 75.91399 29081 ft 472 kts 75°
2026-04-25 14:46 5.05658 75.95576 29334 ft 474 kts 75°
2026-04-25 14:46 5.06314 75.97711 29463 ft 475 kts 75°
2026-04-25 14:46 5.07289 76.00886 29651 ft 477 kts 75°
2026-04-25 14:47 5.08253 76.04026 29835 ft 478 kts 75°
2026-04-25 14:47 5.08915 76.06184 29948 ft 480 kts 75°
2026-04-25 14:47 5.10219 76.10431 30163 ft 482 kts 75°
2026-04-25 14:47 5.11204 76.13646 30316 ft 483 kts 75°
2026-04-25 14:48 5.12194 76.16875 30501 ft 484 kts 75°
2026-04-25 14:48 5.13188 76.20104 30697 ft 485 kts 75°
2026-04-25 14:48 5.14186 76.23345 30854 ft 487 kts 75°
2026-04-25 14:48 5.15186 76.26598 31033 ft 489 kts 75°
2026-04-25 14:49 5.16174 76.29815 31193 ft 490 kts 75°
2026-04-25 14:49 5.17181 76.33091 31361 ft 492 kts 75°
2026-04-25 14:49 5.18190 76.36377 31522 ft 493 kts 75°
2026-04-25 14:49 5.19201 76.39670 31652 ft 496 kts 75°
2026-04-25 14:50 5.20218 76.42984 31793 ft 497 kts 75°
2026-04-25 14:50 5.21238 76.46305 31956 ft 499 kts 75°
2026-04-25 14:50 5.22258 76.49632 32109 ft 500 kts 75°
2026-04-25 14:50 5.23281 76.52965 32287 ft 500 kts 75°
2026-04-25 14:51 5.24305 76.56305 32460 ft 501 kts 75°
2026-04-25 14:51 5.25331 76.59652 32597 ft 503 kts 75°
2026-04-25 14:51 5.26347 76.62964 32731 ft 504 kts 75°
2026-04-25 14:51 5.27379 76.66333 32810 ft 507 kts 75°
2026-04-25 14:52 5.29464 76.73139 32955 ft 513 kts 75°
2026-04-25 14:52 5.31216 76.78857 33072 ft 519 kts 75°
2026-04-25 14:53 5.32640 76.83510 33206 ft 525 kts 75°
2026-04-25 14:53 5.33700 76.86975 33274 ft 527 kts 75°
2026-04-25 14:53 5.35857 76.94018 33397 ft 528 kts 75°
2026-04-25 14:54 5.38009 77.01053 33395 ft 527 kts 75°
2026-04-25 14:54 5.40157 77.08076 33394 ft 527 kts 75°
2026-04-25 14:55 5.42303 77.15100 33392 ft 526 kts 75°
2026-04-25 14:55 5.44434 77.22076 33392 ft 526 kts 75°
2026-04-25 14:56 5.46579 77.29104 33395 ft 527 kts 75°
2026-04-25 14:56 5.48734 77.36164 33450 ft 530 kts 75°
2026-04-25 14:57 5.50896 77.43252 33471 ft 532 kts 75°
2026-04-25 14:57 5.51977 77.46797 33588 ft 529 kts 75°
2026-04-25 14:57 5.53049 77.50309 33855 ft 521 kts 75°
2026-04-25 14:58 5.54082 77.53691 33896 ft 508 kts 75°
2026-04-25 14:58 5.55108 77.57058 33897 ft 503 kts 75°
2026-04-25 14:58 5.57146 77.63753 33897 ft 501 kts 75°
2026-04-25 14:59 5.59180 77.70435 33895 ft 501 kts 75°
2026-04-25 14:59 5.61215 77.77123 33895 ft 501 kts 75°
2026-04-25 15:00 5.63237 77.83769 33898 ft 501 kts 75°
2026-04-25 15:00 5.65271 77.90457 33897 ft 501 kts 75°
2026-04-25 15:01 5.67360 77.97132 33895 ft 502 kts 72°
2026-04-25 15:01 5.70760 78.03259 33897 ft 506 kts 54°
2026-04-25 15:02 5.75112 78.08758 33895 ft 507 kts 53°
2026-04-25 15:02 5.79522 78.14277 33892 ft 507 kts 53°
2026-04-25 15:03 5.83929 78.19812 33896 ft 510 kts 53°
2026-04-25 15:03 5.88421 78.25465 33897 ft 526 kts 53°
2026-04-25 15:04 5.92932 78.31138 33893 ft 511 kts 53°
2026-04-25 15:04 5.97312 78.36651 33895 ft 507 kts 53°
2026-04-25 15:05 5.99507 78.39415 33785 ft 505 kts 53°
2026-04-25 15:05 6.01714 78.42198 33529 ft 515 kts 53°
2026-04-25 15:05 6.03958 78.45025 33269 ft 518 kts 53°
2026-04-25 15:06 6.08455 78.50690 32797 ft 519 kts 53°
2026-04-25 15:06 6.10708 78.53530 32542 ft 519 kts 53°
2026-04-25 15:06 6.13003 78.56331 32295 ft 520 kts 50°
2026-04-25 15:06 6.15596 78.58811 32058 ft 523 kts 41°
2026-04-25 15:07 6.18439 78.61086 31821 ft 524 kts 39°
2026-04-25 15:07 6.21322 78.63325 31583 ft 524 kts 39°
2026-04-25 15:07 6.24209 78.65565 31347 ft 524 kts 39°
2026-04-25 15:07 6.27095 78.67808 31120 ft 524 kts 39°
2026-04-25 15:08 6.29970 78.70047 30874 ft 522 kts 39°
2026-04-25 15:08 6.32832 78.72277 30649 ft 519 kts 39°
2026-04-25 15:08 6.35675 78.74494 30418 ft 517 kts 40°
2026-04-25 15:08 6.38475 78.76680 30204 ft 515 kts 40°
2026-04-25 15:09 6.41204 78.78973 29658 ft 508 kts 46°
2026-04-25 15:09 6.43540 78.81598 29000 ft 501 kts 52°
2026-04-25 15:09 6.47868 78.86992 27717 ft 491 kts 53°
2026-04-25 15:10 6.49998 78.89656 27069 ft 487 kts 53°
2026-04-25 15:10 6.52111 78.92297 26450 ft 482 kts 53°
2026-04-25 15:10 6.56287 78.97506 25209 ft 474 kts 53°
2026-04-25 15:11 6.58347 79.00075 24608 ft 470 kts 52°
2026-04-25 15:11 6.60365 79.02590 23985 ft 467 kts 52°
2026-04-25 15:11 6.62394 79.05121 23353 ft 463 kts 52°
2026-04-25 15:12 6.66353 79.10146 22033 ft 453 kts 53°
2026-04-25 15:12 6.68289 79.12620 21405 ft 447 kts 53°
2026-04-25 15:12 6.70201 79.15063 20791 ft 442 kts 53°
2026-04-25 15:12 6.71454 79.16662 20382 ft 439 kts 53°
2026-04-25 15:13 6.73957 79.19856 19677 ft 429 kts 53°
2026-04-25 15:13 6.77584 79.24484 18563 ft 420 kts 53°
2026-04-25 15:13 6.79381 79.26777 17993 ft 415 kts 53°
2026-04-25 15:14 6.81160 79.29047 17302 ft 412 kts 52°
2026-04-25 15:14 6.82922 79.31295 16685 ft 407 kts 53°
2026-04-25 15:14 6.84605 79.33444 16042 ft 404 kts 53°
2026-04-25 15:14 6.86336 79.35652 15460 ft 399 kts 52°
2026-04-25 15:15 6.88044 79.37834 14809 ft 396 kts 52°
2026-04-25 15:15 6.89743 79.40003 14198 ft 392 kts 53°
2026-04-25 15:15 6.91400 79.42119 13606 ft 389 kts 52°
2026-04-25 15:15 6.93088 79.44233 12888 ft 386 kts 50°
2026-04-25 15:16 6.95027 79.46078 12270 ft 382 kts 40°
2026-04-25 15:16 6.97096 79.47739 11649 ft 378 kts 39°
2026-04-25 15:16 7.01092 79.50873 11120 ft 351 kts 39°
2026-04-25 15:17 7.04789 79.53784 10679 ft 324 kts 39°
2026-04-25 15:17 7.06508 79.55142 10479 ft 312 kts 39°
2026-04-25 15:17 7.08184 79.56466 10318 ft 301 kts 39°
2026-04-25 15:18 7.09806 79.57749 10024 ft 294 kts 39°
2026-04-25 15:18 7.13004 79.60279 9228 ft 289 kts 39°
2026-04-25 15:18 7.14571 79.61519 8821 ft 286 kts 39°
2026-04-25 15:19 7.16128 79.62751 8413 ft 283 kts 39°
2026-04-25 15:19 7.17153 79.63563 8153 ft 281 kts 39°
2026-04-25 15:19 7.19199 79.65182 7644 ft 278 kts 39°
2026-04-25 15:19 7.20696 79.66368 7254 ft 276 kts 39°
2026-04-25 15:20 7.22202 79.67559 6873 ft 274 kts 40°
2026-04-25 15:20 7.23692 79.68739 6485 ft 271 kts 40°
2026-04-25 15:20 7.25168 79.69911 6121 ft 268 kts 40°
2026-04-25 15:20 7.26628 79.71076 5657 ft 268 kts 40°
2026-04-25 15:21 7.28098 79.72244 5190 ft 270 kts 40°
2026-04-25 15:21 7.29566 79.73410 4854 ft 267 kts 40°
2026-04-25 15:21 7.31028 79.74571 4721 ft 268 kts 40°
2026-04-25 15:21 7.32474 79.75724 4611 ft 268 kts 39°
2026-04-25 15:22 7.33944 79.76883 4474 ft 269 kts 40°
2026-04-25 15:22 7.35415 79.78041 4363 ft 268 kts 40°
2026-04-25 15:22 7.36885 79.79201 4240 ft 269 kts 39°
2026-04-25 15:22 7.38342 79.80353 4105 ft 262 kts 39°
2026-04-25 15:23 7.39663 79.81598 3974 ft 262 kts 53°
2026-04-25 15:23 7.40359 79.83263 3848 ft 260 kts 84°
2026-04-25 15:23 7.40104 79.85033 3759 ft 257 kts 115°
2026-04-25 15:23 7.39185 79.86573 3616 ft 256 kts 126°
2026-04-25 15:24 7.38149 79.88002 3435 ft 256 kts 127°
2026-04-25 15:24 7.37093 79.89449 3261 ft 256 kts 127°
2026-04-25 15:24 7.36066 79.90877 3100 ft 247 kts 127°
2026-04-25 15:24 7.35404 79.91800 2989 ft 244 kts 127°
2026-04-25 15:25 7.34032 79.93602 2750 ft 238 kts 130°
2026-04-25 15:25 7.33022 79.94890 2598 ft 232 kts 130°
2026-04-25 15:25 7.32022 79.96119 2461 ft 222 kts 135°
2026-04-25 15:25 7.30775 79.96910 2356 ft 206 kts 166°
2026-04-25 15:26 7.29407 79.96884 2196 ft 195 kts 196°
2026-04-25 15:26 7.28244 79.96269 1931 ft 192 kts 222°
2026-04-25 15:26 7.27280 79.95366 1734 ft 186 kts 218°
2026-04-25 15:26 7.26273 79.94617 1603 ft 174 kts 214°
2026-04-25 15:27 7.25335 79.93929 1546 ft 160 kts 217°
2026-04-25 15:27 7.24497 79.93288 1451 ft 142 kts 216°
2026-04-25 15:27 7.23009 79.92138 1347 ft 134 kts 217°
2026-04-25 15:28 7.22227 79.91532 909 ft 151 kts 217°
2026-04-25 15:28 7.21402 79.90885 718 ft 141 kts 218°
2026-04-25 15:28 7.20594 79.90266 521 ft 143 kts 217°
2026-04-25 15:28 7.19759 79.89651 223 ft 147 kts 216°
2026-04-25 15:29 7.18956 79.89051 50 ft 141 kts 217°
2026-04-25 15:29 7.18445 79.88656 41 ft 32 kts 221°
2026-04-25 15:29 7.18329 79.88558 41 ft 21 kts 220°
2026-04-25 15:29 7.18213 79.88461 40 ft 22 kts 220°
2026-04-25 15:30 7.18095 79.88369 41 ft 21 kts 218°
2026-04-25 15:30 7.17976 79.88278 42 ft 22 kts 217°
2026-04-25 15:30 7.17867 79.88235 42 ft 8 kts 156°
2026-04-25 15:30 7.17837 79.88271 41 ft 9 kts 128°
2026-04-25 15:31 7.17788 79.88325 41 ft 11 kts 148°
2026-04-25 15:31 7.17726 79.88314 40 ft 8 kts 218°
2026-04-25 15:31 7.17671 79.88269 40 ft 12 kts 217°
2026-04-25 15:31 7.17637 79.88268 40 ft 4 kts 163°
2026-04-25 15:32 7.17612 79.88287 40 ft 5 kts 135°
2026-04-25 15:32 7.17582 79.88323 40 ft 8 kts 128°
2026-04-25 15:32 7.17541 79.88377 40 ft 11 kts 127°
2026-04-25 15:33 7.17472 79.88399 40 ft 5 kts 208°
2026-04-25 15:33 7.17446 79.88380 40 ft 0 kts 218°